sat.trackr.live / text

‹ back to catalog

STARLINK-4155

NORAD 53036 · 2022-076BC

PAYLOAD ACTIVE UNKNOWN

§ Identity

Operator
Country
US
Launch date
2022-07-07
Launch site
AFETR
Launch vehicle
Mass (kg)
RCS (m²)

Purposes: comms

External: N2YO · Heavens-Above · Gunter

§ Orbital elements

Epoch: 2026-09-20T04:00:03.000096Z

Period
93.79 min
Inclination
53.1598°
Eccentricity
0.0001509
Mean motion
15.35416007 rev/d
Perigee alt
458.7 km
Apogee alt
460.7 km
Semi-major
6,837.8 km
B*
-4.3818e-4
RAAN
276.4967°
Arg perigee
83.2872°
Mean anomaly
168.4127°
Rev number
581

§ Raw data

STARLINK-41551 53036U 22076BC  26263.16670139 -.00015641  00000+0 -43818-3 0  99912 53036  53.1598 276.4967 0001509  83.2872 168.4127 15.35416007  5811

JSON: /api/v1/satellites/53036 · /tle

For live sub-satellite position, see the globe view (requires WebGL).

§ Visibility from observer

Set your observer location to see the next 7 days of passes ≥ 10°. The values pass through the URL so the page stays shareable.

No JS? Fill the form by hand. The geolocation button needs JavaScript.